Home > Weather > Vatican City > Past weeks

Flag for Vatican City State Past Weather in Vatican City, Vatican City State — Yesterday and Last 2 Weeks

Now
79 °F

Clear.


Feels Like: 79 °F
Forecast: 71 / 90 °F
Wind: 3 mph from East

Location: Rome / Ciampino

Current Time: Jul 23, 2016 at 11:24:44 PM

Latest Report: Jul 23, 2016 at 10:50 PM


Visibility: 10 mi

Pressure: 29.98 "Hg

Humidity: 37%

Dew Point: 50 °F

Location of Vatican CityLocation

Past Weather in Vatican City — Graph

°F

Vatican City Temperature Yesterday

Maximum temperature yesterday: 91 °F (at 1:50 PM)
Minimum temperature yesterday: 64 °F (at 5:50 AM)
Average temperature yesterday: 79 °F

High & Low Weather Summary for the Past Weeks

 TemperatureHumidityPressure
High93 °F (Jul 11, 3:20 PM)89% (Jul 8, 11:20 PM)30.15 "Hg (Jul 8, 11:20 PM)
Low59 °F (Jul 17, 5:50 AM)18% (Jul 21, 2:50 PM)29.53 "Hg (Jul 15, 3:50 AM)
Average78 °F49%29.99 "Hg
* Reported Jul 8 9:20 PM — Jul 23 9:50 PM, Vatican City, Weather by CustomWeather, © 2016

Note: Actual official high and low records may vary slightly from our data, if they occured in-between our weather recording intervals... More about our weather records

Advertising

Vatican City Weather History for the Previous 24 Hours

Scroll right to see more
 ConditionsComfort  
Time TempWeatherWind HumidityBarometerVisibility
9:50 PM
Sat, Jul 23
79 °FClear.5 mph39%29.98 "Hg10 mi
9:20 PM79 °FPassing clouds.3 mph45%30.01 "HgN/A
8:50 PM81 °FSunny.6 mph42%29.98 "Hg10 mi
8:20 PM79 °FSunny.2 mph54%29.98 "Hg10 mi
7:50 PM79 °FPassing clouds.3 mph58%29.98 "HgN/A
7:20 PM81 °FSunny.2 mph51%29.98 "Hg10 mi
6:50 PM81 °FPassing clouds.5 mph51%29.98 "HgN/A
6:20 PM82 °FLight rain. Passing clouds.3 mph45%29.95 "Hg6 mi
5:50 PM90 °FPassing clouds.2 mph27%29.95 "HgN/A
5:20 PM88 °FLight rain. Passing clouds.7 mph29%29.95 "Hg6 mi
4:50 PM90 °FPassing clouds.6 mph24%29.95 "HgN/A
4:20 PM90 °FPassing clouds.7 mph26%29.95 "HgN/A
3:50 PM90 °FPassing clouds.9 mph26%29.95 "HgN/A
3:20 PM90 °FLight rain. Passing clouds.10 mph26%29.98 "Hg6 mi
2:50 PM90 °FPassing clouds.8 mph24%30.01 "HgN/A
2:20 PM90 °FPassing clouds.7 mph26%30.01 "HgN/A
1:50 PM90 °FPassing clouds.7 mph26%30.01 "HgN/A
1:20 PM91 °FSunny.6 mph24%30.01 "Hg10 mi
12:50 PM91 °FSunny.3 mph26%30.01 "Hg10 mi
12:20 PM91 °FPassing clouds.6 mph23%30.04 "HgN/A
11:50 AM90 °FPassing clouds.5 mph22%30.04 "HgN/A
11:20 AM90 °FPassing clouds.5 mph22%30.04 "HgN/A
10:50 AM88 °FSunny.3 mph24%30.01 "Hg10 mi
10:20 AM86 °FPassing clouds.6 mph33%30.01 "HgN/A
9:50 AM82 °FSunny.6 mph40%30.01 "Hg10 mi
9:20 AM82 °FSunny.1 mph40%30.01 "Hg10 mi
8:50 AM79 °FSunny.2 mph48%29.98 "Hg10 mi
8:20 AM79 °FSunny.3 mph42%30.01 "Hg10 mi
7:50 AM77 °FPassing clouds.7 mph47%29.98 "HgN/A
7:20 AM75 °FSunny.5 mph47%30.01 "Hg10 mi
6:50 AM73 °FPassing clouds.5 mph50%30.01 "HgN/A
6:20 AM73 °FPassing clouds.2 mph53%30.01 "HgN/A
5:50 AM73 °FPassing clouds.1 mph53%30.01 "HgN/A
5:20 AM73 °FPassing clouds.5 mph53%30.01 "HgN/A
4:50 AM73 °FPassing clouds.3 mph50%30.01 "HgN/A
4:20 AM72 °FPassing clouds.2 mph53%29.98 "HgN/A
3:50 AM72 °FClear.5 mph50%29.98 "Hg10 mi
3:20 AM72 °FClear.2 mph47%29.98 "Hg10 mi
2:50 AM73 °FClear.2 mph44%29.98 "Hg10 mi
2:20 AM73 °FClear.2 mph47%30.01 "Hg10 mi
1:50 AM75 °FClear.6 mph47%30.01 "Hg10 mi
1:20 AM73 °FClear.3 mph47%30.01 "Hg10 mi
12:50 AM73 °FClear.5 mph47%30.01 "Hg10 mi
12:20 AM75 °FClear.1 mph47%30.01 "Hg10 mi
11:50 PM
Fri, Jul 22
75 °FClear.3 mph47%30.01 "Hg10 mi
11:20 PM75 °FClear.2 mph44%30.01 "Hg10 mi
Weather by CustomWeather, © 2016

See weather overviewHow to use our weather pages